Location: Azul
(36.7830°S, 59.8500°W)
Time: 01:57:13
(UTC-03:00)

First-Move - Visible Passes

Search period start: 23 October 2021 00:00
Search period end: 02 November 2021 00:00
Orbit: 574 x 666 km, 97.6° (Epoch: 22 October)

Date Brightness Start Highest point End Pass type
(mag) Time Alt. Az. Time Alt. Az. Time Alt. Az.
23 Oct ? 03:33:55 10° E 03:36:06 14° ESE 03:38:19 10° SE visible
23 Oct ? 05:07:22 10° N 05:11:41 53° W 05:16:10 10° SSW visible
24 Oct ? 03:49:59 10° ENE 03:53:17 20° ESE 03:56:38 10° SSE visible
24 Oct ? 05:25:07 10° NNW 05:29:08 34° W 05:33:18 10° SSW visible
25 Oct ? 04:06:35 10° NE 04:10:30 31° ESE 04:14:32 10° S visible
26 Oct ? 04:23:29 10° NNE 04:27:46 48° ESE 04:32:12 10° S visible
27 Oct ? 04:40:38 10° NNE 04:45:06 76° ESE 04:49:43 10° S visible
28 Oct ? 03:25:41 10° E 03:27:00 11° ESE 03:28:19 10° SE visible
28 Oct ? 04:58:01 10° N 05:02:28 68° W 05:07:05 10° SSW visible
29 Oct ? 03:41:14 10° ENE 03:44:09 17° ESE 03:47:07 10° SSE visible
29 Oct ? 05:15:37 10° N 05:19:53 42° W 05:24:17 10° SSW visible
30 Oct ? 03:57:38 10° NE 04:01:21 26° ESE 04:05:08 10° SSE visible
31 Oct ? 04:14:23 10° NE 04:18:35 39° ESE 04:22:54 10° S visible
01 Nov ? 04:31:25 10° NNE 04:35:53 61° ESE 04:40:28 10° S visible
